Location: Anna District 4 Election Precinct
(37.4833°N, 89.2195°W)
Time: 13:45:17
(UTC+00:00)

GPS 2-04 Rocket1 - Pass Details

Date: 29 October 2020
Orbit: 417 x 546 km, 35.6° (Epoch: 03 December)

Event Time Altitude Azimuth Distance (km) Brightness Sun altitude
Rises 23:30:28 0° 237° (WSW) 2,583 7.8 -6.4°
Reaches altitude 10° 23:32:45 10° 228° (SW) 1,723 6.4 -6.9°
Maximum altitude 23:36:25 36° 161° (SSE) 834 3.7 -7.6°
Drops below altitude 10° 23:40:13 10° 94° (E) 1,785 4.8 -8.3°
Enters shadow 23:40:15 10° 93° (E) 1,796 4.8 -8.3°
